Weather History for Siemreap, Cambodia

Change the Weather History Date:

Sunday, August 18, 2013

  Actual Average Record
Temperature  
Mean Temperature 86 °F -  
Max Temperature 91 °F - - ()
Min Temperature 80 °F - - ()
Cooling Degree Days 20    
Growing Degree Days 36 (Base 50)    
Moisture  
Dew Point 74 °F    
Average Humidity 70    
Maximum Humidity 84    
Minimum Humidity 52    
Precipitation  
Precipitation 0.00 in - - ()
Sea Level Pressure  
Sea Level Pressure 29.69 in    
Wind  
Wind Speed 8 mph ()    
Max Wind Speed 14 mph    
Max Gust Speed 22 mph    
Visibility 6.0 miles    
Events      
T = Trace of Precipitation, MM = Missing Value Source: Averaged Metar Reports

Daily Weather History Graph

Daily Weather History Graph

Search for Another Location

Airport:

Trip Planner

Search our weather history database for the weather conditions in past years. The results will help you decide how hot, cold, wet, or windy it might be!

Date:

Astronomy

Aug. 18, 2013 Rise Set
Actual Time 5:52 AM ICT 6:24 PM ICT
Civil Twilight 5:30 AM ICT 6:46 PM ICT
Nautical Twilight 5:04 AM ICT 7:11 PM ICT
Astronomical Twilight 4:38 AM ICT 7:37 PM ICT
Moon 3:50 PM ICT (8/18) 2:42 AM ICT (8/18)
Length of Visible Light 13h 15m
Length of Day
12h 32m
Waxing Gibbous, 88% of the Moon is Illuminated
Aug 18
Waxing Gibbous
Aug 21
Full
Aug 28
Last Quarter
Sep 5
New
Sep 13
First Quarter

Hourly Weather History & Observations

Time (ICT) Temp. Heat Index Dew Point Humidity Pressure Visibility Wind Dir Wind Speed Gust Speed Precip Events Conditions
12:00 AM 82.4 °F 89.5 °F 75.2 °F 79% 29.71 in 6.2 mi WSW 8.1 mph - N/A   Scattered Clouds
12:30 AM 80.6 °F 86.2 °F 75.2 °F 84% 29.71 in 6.2 mi WSW 8.1 mph - N/A   Scattered Clouds
1:00 AM 80.6 °F 86.2 °F 75.2 °F 84% 29.71 in 6.2 mi WSW 8.1 mph - N/A   Scattered Clouds
7:00 AM 80.6 °F 86.2 °F 75.2 °F 84% 29.71 in 6.2 mi WSW 6.9 mph - N/A   Scattered Clouds
7:30 AM 80.6 °F 86.2 °F 75.2 °F 84% 29.74 in 6.2 mi WSW 5.8 mph - N/A   Scattered Clouds
8:00 AM 80.6 °F 86.2 °F 75.2 °F 84% 29.74 in 6.2 mi WSW 8.1 mph - N/A   Scattered Clouds
8:30 AM 82.4 °F 89.5 °F 75.2 °F 79% 29.74 in 6.2 mi SW 8.1 mph - N/A   Scattered Clouds
9:00 AM 82.4 °F 89.5 °F 75.2 °F 79% 29.74 in 6.2 mi WSW 9.2 mph - N/A   Scattered Clouds
9:30 AM 84.2 °F 92.3 °F 75.2 °F 74% 29.74 in 6.2 mi WSW 8.1 mph - N/A   Scattered Clouds
10:00 AM 86.0 °F 95.1 °F 75.2 °F 70% 29.74 in 6.2 mi West 9.2 mph - N/A   Scattered Clouds
10:30 AM 87.8 °F 95.6 °F 73.4 °F 62% 29.74 in 6.2 mi West 13.8 mph - N/A   Scattered Clouds
11:00 AM 87.8 °F 93.8 °F 71.6 °F 58% 29.74 in 6.2 mi West 11.5 mph - N/A   Scattered Clouds
11:30 AM 87.8 °F 95.6 °F 73.4 °F 62% 29.71 in 6.2 mi West 12.7 mph - N/A   Scattered Clouds
12:00 PM 87.8 °F 95.6 °F 73.4 °F 62% 29.71 in 6.2 mi West 13.8 mph - N/A   Scattered Clouds
12:30 PM 87.8 °F 97.6 °F 75.2 °F 66% 29.71 in 6.2 mi West 11.5 mph - N/A   Scattered Clouds
1:00 PM 89.6 °F 98.2 °F 73.4 °F 59% 29.68 in 6.2 mi West 13.8 mph - N/A   Scattered Clouds
1:30 PM 91.4 °F 100.1 °F 73.4 °F 55% 29.68 in 6.2 mi West 12.7 mph - N/A   Scattered Clouds
2:00 PM 91.4 °F 98.4 °F 71.6 °F 52% 29.65 in 6.2 mi West 11.5 mph - N/A   Scattered Clouds
2:30 PM 91.4 °F 100.1 °F 73.4 °F 55% 29.65 in 6.2 mi West 10.4 mph - N/A   Scattered Clouds
3:00 PM 89.6 °F 98.2 °F 73.4 °F 59% 29.65 in 6.2 mi West 2.3 mph 17.3 mph N/A   Scattered Clouds
3:30 PM 91.4 °F 100.1 °F 73.4 °F 55% 29.62 in 6.2 mi West 6.9 mph 21.9 mph N/A   Scattered Clouds
4:00 PM 91.4 °F 100.1 °F 73.4 °F 55% 29.62 in 6.2 mi West 12.7 mph - N/A   Scattered Clouds
4:30 PM 89.6 °F 98.2 °F 73.4 °F 59% 29.62 in 6.2 mi West 6.9 mph - N/A   Scattered Clouds
5:00 PM 89.6 °F 98.2 °F 73.4 °F 59% 29.62 in 6.2 mi West 10.4 mph - N/A   Scattered Clouds
5:30 PM 89.6 °F 96.2 °F 71.6 °F 55% 29.62 in 6.2 mi West 1.2 mph 15.0 mph N/A   Scattered Clouds
6:00 PM 89.6 °F 98.2 °F 73.4 °F 59% 29.62 in 6.2 mi West 1.2 mph 13.8 mph N/A   Scattered Clouds
6:30 PM 87.8 °F 95.6 °F 73.4 °F 62% 29.65 in 6.2 mi WSW 1.2 mph - N/A   Scattered Clouds
7:00 PM 86.0 °F 95.1 °F 75.2 °F 70% 29.65 in 5.6 mi WSW 11.5 mph - N/A   Scattered Clouds
7:30 PM 84.2 °F 92.3 °F 75.2 °F 74% 29.68 in 5.6 mi WSW 1.2 mph - N/A   Scattered Clouds
8:00 PM 84.2 °F 92.3 °F 75.2 °F 74% 29.68 in 5.6 mi WSW 9.2 mph - N/A   Scattered Clouds
8:30 PM 82.4 °F 89.5 °F 75.2 °F 79% 29.68 in 5.6 mi WSW 9.2 mph - N/A   Scattered Clouds
9:00 PM 82.4 °F 89.5 °F 75.2 °F 79% 29.71 in 5.6 mi WSW 6.9 mph - N/A   Scattered Clouds
9:30 PM 82.4 °F 89.5 °F 75.2 °F 79% 29.71 in 5.6 mi SW 6.9 mph - N/A   Scattered Clouds
10:00 PM 82.4 °F 89.5 °F 75.2 °F 79% 29.71 in 5.6 mi Calm Calm - N/A   Scattered Clouds
10:30 PM 80.6 °F 86.2 °F 75.2 °F 84% 29.71 in 5.6 mi WSW 9.2 mph - N/A   Scattered Clouds
11:00 PM 80.6 °F 86.2 °F 75.2 °F 84% 29.71 in 5.6 mi WSW 9.2 mph - N/A   Unknown
11:30 PM 82.4 °F 89.5 °F 75.2 °F 79% 29.71 in 5.6 mi WSW 9.2 mph - N/A   Unknown